Regional Weather Roundup
Issued by NWS

Home | Current Version | Previous Version | Graphics & Text | Print | Product List | Glossary On
Versions: 1 2 3 4 5 6 7 8 9 10 11 12 13 14 15 16 17 18 19 20 21 22 23 24 25 26 27 28 29 30 31 32 33 34 35 36 37 38 39 40 41 42 43 44 45 46 47 48 49 50
000
ASUS43 KFSD 040210
RWRSD

WEATHER ROUNDUP FOR SOUTH DAKOTA
NATIONAL WEATHER SERVICE SIOUX FALLS SD
800 PM CST TUE MAR 03 2015

NOTE: "FAIR" INDICATES FEW OR NO CLOUDS BELOW 12,000 FEET WITH NO
SIGNIFICANT WEATHER AND/OR OBSTRUCTIONS TO VISIBILITY.


SDZ001>005-009-010-012>017-040300-
NORTHWEST AND NORTH CENTRAL SOUTH DAKOTA

CITY           SKY/WX    TMP DP  RH WIND       PRES   REMARKS
BUFFALO          N/A      7  -6  55 NW12      29.91R WCI  -8
FAITH            N/A      6  -5  60 W6        30.01R WCI  -4
MOBRIDGE       CLEAR     10  -1  61 N8        30.01R WCI  -2
$$

SDZ012>016-024>037-041>051-057-063-072>074-040300-
SOUTHWEST AND SOUTH CENTRAL SOUTH DAKOTA

CITY           SKY/WX    TMP DP  RH WIND       PRES   REMARKS
RAPID CTY ARPT PTCLDY    10  -1  61 N17       30.00R WCI  -8
PIERRE         CLEAR     12  -1  56 NW12      30.06R WCI  -2
CUSTER         PTCLDY     3  -8  60 W6        29.83R WCI  -8
ELLSWORTH AFB  CLEAR     11  -2  54 N16       29.99R WCI  -5
PHILIP         PTCLDY    10  -1  61 NW9       30.07R WCI  -3
PINE RIDGE     LGT SNOW  13   8  81 NE3       30.02R
SPEARFISH      FAIR       7  -4  61 MISG      29.97R
WINNER         CLOUDY    12   0  58 W10       30.06R WCI  -1
$$

SDZ004>011-016>023-039-040-040300-
NORTHEAST SOUTH DAKOTA

CITY           SKY/WX    TMP DP  RH WIND       PRES   REMARKS
ABERDEEN       CLEAR      5  -4  66 N7        30.07R WCI  -7
WATERTOWN      CLEAR      6  -2  69 NW15      30.01R WCI -12
SISSETON         N/A      5  -4  66 NW14      30.04R WCI -12
$$

SDZ017-020-022-023-036>040-048>070-040300-
SOUTHEAST SOUTH DAKOTA

CITY           SKY/WX    TMP DP  RH WIND       PRES   REMARKS
SIOUX FALLS    PTCLDY    11   2  67 NW10      30.04R WCI  -3
HURON          PTCLDY     5  -1  76 NW8       30.08R WCI  -8
CHAMBERLAIN    MOCLDY    13   3  64 NW8       30.07R WCI   2
MITCHELL       PTCLDY     9   1  70 NW7       30.08R WCI  -2
YANKTON        CLEAR     12   3  67 NW8       30.10R WCI   1
$$

ABBREVIATIONS USED IN REMARKS
   TC - TEMPERATURE IN CELSIUS
  WCI - WIND CHILL INDEX
   HX - HEAT INDEX
  VSB - VISIBILITY




USA.gov is the U.S. government's official web portal to all federal, state and local government web resources and services.